Regional Weather Roundup
Issued by NWS

Home | Current Version | Previous Version | Text Only | Print | Product List | Glossary On
Versions: 1 2 3 4 5 6 7 8 9 10 11 12 13 14 15 16 17 18 19 20 21 22 23 24 25 26 27 28 29 30 31 32 33 34 35 36 37 38 39 40 41 42 43 44 45 46 47 48 49 50
000
ASUS43 KMPX 272110
RWRMN
WEATHER ROUNDUP FOR MINNESOTA
NATIONAL WEATHER SERVICE TWIN CITIES/CHANHASSEN MN
300 PM CST SAT DEC 27 2014


NOTE: "FAIR" INDICATES FEW OR NO CLOUDS BELOW 12,000 FEET WITH NO
SIGNIFICANT WEATHER AND/OR OBSTRUCTIONS TO VISIBILITY. N/A MEANS
CURRENT SKY AND/OR WEATHER CONDITIONS ARE NOT AVAILABLE.

MNZ060>063-068>070-272200-
   Twin Cities Metro

CITY           SKY/WX    TMP DP  RH WIND       PRES   REMARKS
TWIN CITIES    SUNNY     24  14  65 W7        30.08R WCI  16
ST PAUL        SUNNY     25  15  66 W12       30.09S WCI  14
CRYSTAL        SUNNY     24  14  65 W9        30.07S WCI  14
BLAINE         SUNNY     27  16  63 W10       30.06S WCI  17
LAKEVILLE      SUNNY     19  14  79 W10       30.08S WCI   8
EDEN PRAIRIE   SUNNY     22  11  62 W9        30.08S WCI  12
SOUTH ST PAUL  SUNNY     26  15  62 W10       30.08R WCI  17
LAKE ELMO      FAIR      27  16  63 W7        30.07S WCI  19
$$
MNZ001>005-007-008-013>017-022>024-027-028-272200-
   Northwest Minnesota

CITY           SKY/WX    TMP DP  RH WIND       PRES   REMARKS
BEMIDJI        LGT SNOW  16   8  69 W8        29.98R WCI   5
HALLOCK          N/A     18  12  79 SW3       30.00S
ROSEAU         FLURRIES  16  10  79 W8        29.98R WCI   5
WARROAD        PTCLDY    14   9  79 W12       29.97R WCI   0
THIEF RVR FALL CLOUDY    14  10  85 SW7       30.00F WCI   4
CROOKSTON      CLOUDY    18  12  79 W5        30.04S WCI  11
FOSSTON        LGT SNOW  12  10  92 SW10      30.01R WCI  -1
DETROIT LAKES  CLOUDY    19  16  86 SW8       30.02S WCI   9
MOORHEAD       MOSUNNY   23  19  86 W10       30.05S WCI  12
PARK RAPIDS    CLOUDY    20   9  62 SW9       29.98S WCI   9
MAHNOMEN       FLURRIES  16  12  85 W9        30.02R WCI   5
$$
MNZ006-009>011-018-025>026-272200-
   North Central Minnesota

CITY           SKY/WX    TMP DP  RH WIND       PRES   REMARKS
BAUDETTE       MOCLDY    13   6  74 SW6       29.95S WCI   4
FLAG ISLAND    PTCLDY    12   7  79 W7        29.94S WCI   2
INTL FALLS     CLOUDY    15   6  67 W6        29.95R WCI   6
WASKISH        CLOUDY    12   7  79 CALM      29.99R
BIG FORK       CLOUDY    18   7  62 SW7       29.97R WCI   8
LONGVILLE      CLOUDY    21   3  45 SW5       29.98S WCI  15
GRAND RAPIDS   CLOUDY    19   5  53 W5        29.96S WCI  13
CRANE LAKE     CLOUDY    16   5  62 S3        29.96R
ORR            CLOUDY    18   3  53 W5        29.92R WCI  11
COOK           MOCLDY    19   7  58 SW6       29.95R WCI  11
WALKER         MOCLDY    19   3  49 SW9       29.98R WCI   9
$$
MNZ012-019>021-037-272200-
   Northeast Minnesota

CITY           SKY/WX    TMP DP  RH WIND       PRES   REMARKS
DULUTH         FAIR      22   7  52 W9        29.95R WCI  12
ELY            CLEAR     18   5  57 W6        29.92R WCI   9
HIBBING        MOCLDY    21   5  50 W6        29.94F WCI  13
EVELETH        CLEAR     21   9  58 SW7       29.95S WCI  13
DULUTH HARBOR  SUNNY     27  10  50 W10       30.01S WCI  17
TWO HARBORS    CLEAR     27  10  50 W8        29.94R WCI  18
SILVER BAY     CLEAR     25   9  50 W3        29.93R
GRAND MARAIS     N/A     21   9  59 N9        29.96R WCI  11
G MARAIS ARPRT CLEAR     10   3  72 W6        29.87R WCI   1
$$
MNZ029>031-032-039>041-046>048-054>057-064-272200-
   West Central Minnesota

CITY           SKY/WX    TMP DP  RH WIND       PRES   REMARKS
FERGUS FALLS   CLOUDY    21  12  68 SW10      30.07F WCI  10
WHEATON        PTSUNNY   25  18  74 W9        30.08F WCI  15
MORRIS         SUNNY     21  12  68 SW8       30.06F WCI  12
ALEXANDRIA     MOSUNNY   21  12  68 SW10      30.03F WCI  10
ELBOW LAKE     CLOUDY    23  16  76 SW13      30.04F WCI  11
WADENA         CLOUDY    19  10  68 W9        30.01S WCI   9
GLENWOOD       SUNNY     18  10  73 SW10      30.05F WCI   6
APPLETON       SUNNY     21  12  68 SW8       30.09F WCI  12
BENSON         SUNNY     18  10  73 SW7       30.09S WCI   8
ORTONVILLE     MOSUNNY   23  14  68 W10G18    30.07F WCI  12
MADISON        SUNNY     25  16  68 W9        30.10F WCI  15
WILLMAR        FAIR      18   9  68 W10       30.10F WCI   6
$$
MNZ033>034-036-042>043-049>051-058-059-272200-
   Central Minnesota

CITY           SKY/WX    TMP DP  RH WIND       PRES   REMARKS
ST CLOUD       SUNNY     25   9  50 W10       30.06S WCI  15
SAUK CENTRE    FAIR      18   9  68 SW9       30.05F WCI   6
PAYNESVILLE    SUNNY     17   8  68 S8        30.07F WCI   7
AITKIN         CLOUDY    27   5  39 W5        29.99F WCI  21
PINE RIVER     PTSUNNY   21   7  53 SW6       30.02S WCI  14
BRAINERD       CLOUDY    23   3  42 SW9       30.01F WCI  13
STAPLES        MOSUNNY   21   5  49 W9        30.01S WCI  11
LONG PRAIRIE   PTSUNNY   21   9  58 SW9       30.03F WCI  11
LITTLE FALLS   PTSUNNY   23   7  50 S7        30.04S WCI  15
LITCHFIELD     SUNNY     18  10  73 W7        30.09S WCI   8
BUFFALO        SUNNY     22   9  58 SW7       30.09R WCI  13
MAPLE LAKE     SUNNY     23   9  54 W9        30.08R WCI  13
$$
MNZ037-044-045-052-053-272200-
   East Central Minnesota

CITY           SKY/WX    TMP DP  RH WIND       PRES   REMARKS
PRINCETON      SUNNY     25   9  50 W8        30.05S WCI  16
MORA           SUNNY     27  10  50 W7        30.04S WCI  19
CAMBRIDGE      SUNNY     27  14  59 W6        30.04R WCI  20
RUSH CITY      SUNNY     26  14  61 W7        30.05R WCI  18
MOOSE LAKE     SUNNY     28   9  43 W9        29.98S WCI  20
HINCKLEY       FAIR      27  10  50 CALM      30.02S
CLOQUET        SUNNY     25   7  46 SW8       29.97R WCI  16
MCGREGOR       CLOUDY    25   5  42 W7        30.00R WCI  17
$$
MNZ071>073-080-081-089-090-097-098-272200-
   Southwest Minnesota

CITY           SKY/WX    TMP DP  RH WIND       PRES   REMARKS
MONTEVIDEO     SUNNY     21  18  86 W6        30.11S WCI  14
GRANITE FALLS  SUNNY     20  12  71 SW10      30.13S WCI   9
CANBY          SUNNY     20  13  75 SW13      30.11F WCI   8
MARSHALL       SUNNY     19   9  63 W13       30.11S WCI   7
REDWOOD FALLS  SUNNY     18   9  68 W10       30.12F WCI   6
OLIVIA         SUNNY     18  12  79 W8        30.11S WCI   7
PIPESTONE      SUNNY     12   9  85 W9        30.10F WCI   0
WINDOM         SUNNY     18  10  73 W13       30.11R WCI   4
WORTHINGTON    SUNNY     16 -27  13 W13       30.12R WCI   2
JACKSON        SUNNY     19  12  73 W13       30.12R WCI   7
TRACY          SUNNY     19  12  76 W8        30.11S WCI   8
SLAYTON        SUNNY     14   8  78 CALM      30.11S
$$
MNZ065>067-074>077-082>085-091>093-272200-
   South Central Minnesota

CITY           SKY/WX    TMP DP  RH WIND       PRES   REMARKS
MANKATO        SUNNY     18   7  62 W9        30.11F WCI   6
NEW ULM        SUNNY     14   7  73 W12       30.13R WCI   0
ST JAMES       SUNNY     19  10  68 W9        30.14S WCI   9
FAIRMONT       SUNNY     19   9  63 W9        30.12R WCI   9
GLENCOE        SUNNY     17  10  73 W7        30.10R WCI   7
FARIBAULT      SUNNY     19  12  73 W7        30.10S WCI  10
OWATONNA       SUNNY     18  12  79 W14       30.09R WCI   4
WASECA         SUNNY     18  12  79 W8        30.12R WCI   7
ALBERT LEA     SUNNY     18  12  79 W8        30.10R WCI   7
$$
MNZ078>079-086>088-094>096-272200-
   Southeast Minnesota

CITY           SKY/WX    TMP DP  RH WIND       PRES   REMARKS
ROCHESTER      CLOUDY    20  16  84 NW17      30.06R WCI   5
RED WING       SUNNY     27  18  69 W9        30.07S WCI  17
STANTON        SUNNY     22  15  75 W14       30.08R HAZE    WCI  10
DODGE CENTER   MOSUNNY   19  16  86 W15       30.06S WCI   5
WINONA         CLOUDY    28  23  80 NW9       30.08S WCI  20
AUSTIN         PTSUNNY   18  14  86 W9        30.09R WCI   6
PRESTON        CLOUDY    21  18  87 W13       30.07R WCI   8
$$
ABBREVIATIONS USED IN REMARKS
   TC - TEMPERATURES IN CELSIUS
  WCI - WIND CHILL INDEX
   HX - HEAT INDEX
  VSB - VISIBILITY
$$


USA.gov is the U.S. government's official web portal to all federal, state and local government web resources and services.